Location: Unspecified
(0.0000°N, 0.0000°E)
Time: 05:01:14
(UTC+00:00)

Safir 2 - Pass Details

Date: 21 May 2026
Orbit: 804 x 808 km, 99.0° (Epoch: 11 June)

Event Time Altitude Azimuth Distance (km) Brightness Sun altitude
Rises 05:05:50 0° 354° (N) 3,301 11.5 -11.9°
Reaches altitude 10° 05:08:23 10° 344° (NNW) 2,373 10.6 -11.3°
Maximum altitude 05:12:58 31° 283° (WNW) 1,368 8.9 -10.2°
Drops below altitude 10° 05:17:35 10° 222° (SW) 2,382 10.0 -9.2°
Enters shadow 05:18:44 - 216° (SW) 2,790 10.4 -8.9°
